Puerto Limon, Costa Rica

4:26 PM CST on September 24, 2017 (GMT -0600)
Limon International

Weather History for MRLM - November, 2013

Change the Weather History Date:

Monday, November 18, 2013

  Actual Average Record
Temperature  
Mean Temperature 80 °F -  
Max Temperature 86 °F 80 °F 89 °F (2016)
Min Temperature 74 °F 72 °F 68 °F (2010)
Cooling Degree Days 15    
Growing Degree Days 30 (Base 50)    
Moisture  
Dew Point 75 °F    
Average Humidity 81    
Maximum Humidity 94    
Minimum Humidity 70    
Precipitation  
Precipitation 0.04 in 0.51 in - ()
Sea Level Pressure  
Sea Level Pressure 29.84 in    
Wind  
Wind Speed 4 mph ()    
Max Wind Speed 12 mph    
Max Gust Speed -    
Visibility 6.6 miles    
Events Rain    
Averages and records for this station are not official NWS values.
T = Trace of Precipitation, MM = Missing Value Source: Averaged Metar Reports

Daily Weather History Graph

Daily Weather History Graph

Search for Another Location

Airport or City:

Trip Planner

Search our weather history database for the weather conditions in past years. The results will help you decide how hot, cold, wet, or windy it might be!

Date:

Astronomy

Nov. 18, 2013 Rise Set
Actual Time 5:27 AM CST 5:06 PM CST
Civil Twilight 5:05 AM CST 5:28 PM CST
Nautical Twilight 4:39 AM CST 5:54 PM CST
Astronomical Twilight 4:14 AM CST 6:20 PM CST
Moon 6:10 PM CST (11/18) 6:13 AM CST (11/18)
Length of Visible Light 12h 23m
Length of Day
11h 38m
Full, 99% of the Moon is Illuminated
Nov 18
Full
Nov 25
Last Quarter
Dec 2
New
Dec 9
First Quarter
Dec 17
Full

Hourly Weather History & Observations

Time (CST) Temp. Heat Index Dew Point Humidity Pressure Visibility Wind Dir Wind Speed Gust Speed Precip Events Conditions
6:00 AM 75 °F - 73 °F 92% 29.86 in 4 mi Calm Calm - - Rain Heavy Rain
6:00 AM 75.2 °F - 73.4 °F 94% 29.84 in 4.3 mi Calm Calm - N/A Rain Heavy Rain
7:00 AM 77.0 °F - 75.2 °F 94% 29.86 in 6.2 mi WSW 4.6 mph - N/A   Mostly Cloudy
8:00 AM 80.6 °F 86.2 °F 75.2 °F 84% 29.87 in 6.2 mi West 6.9 mph - N/A   Scattered Clouds
9:00 AM 82 °F - 75 °F 75% 29.90 in 9 mi WSW 4.6 mph - -   Overcast
9:00 AM 80.6 °F 86.2 °F 75.2 °F 84% 29.87 in 6.2 mi WSW 4.6 mph - N/A   Scattered Clouds
10:00 AM 84.2 °F 92.3 °F 75.2 °F 74% 29.89 in 6.2 mi West 3.5 mph - N/A   Scattered Clouds
10:15 AM 82.4 °F 88.2 °F 73.4 °F 74% 29.88 in 5.0 mi SE 10.4 mph - N/A Rain Rain
11:00 AM 82.4 °F 90.9 °F 77.0 °F 84% 29.87 in 6.2 mi SE 5.8 mph - N/A   Mostly Cloudy
12:00 PM 82 °F - 76 °F 76% 29.87 in 9 mi ESE 9.2 mph - -   Overcast
12:00 PM 82.4 °F 89.5 °F 75.2 °F 79% 29.86 in 6.2 mi ESE 9.2 mph - N/A   Mostly Cloudy
1:00 PM 78.8 °F - 75.2 °F 89% 29.82 in 6.2 mi SE 11.5 mph - N/A   Mostly Cloudy
2:00 PM 80.6 °F 86.2 °F 75.2 °F 84% 29.80 in 6.2 mi South 5.8 mph - N/A   Scattered Clouds
3:00 PM 83 °F - 75 °F 71% 29.80 in 9 mi SSE 4.6 mph - -   Overcast
3:00 PM 84.2 °F 92.3 °F 75.2 °F 74% 29.78 in 6.2 mi SSE 4.6 mph - N/A   Mostly Cloudy
4:00 PM 84.2 °F 90.9 °F 73.4 °F 70% 29.79 in - South 3.5 mph - N/A   Clear
5:00 PM 80.6 °F 85.4 °F 73.4 °F 79% 29.80 in - South 3.5 mph - N/A   Clear
6:00 PM 78 °F - 74 °F 82% 29.82 in 9 mi South 2.3 mph - -   Haze
6:00 PM 78.8 °F - 73.4 °F 83% 29.82 in - South 2.3 mph - N/A   Clear